Jackpot

Texas Poker Multi Jackpot System

Kini Telah hadir Jackpot SUPER ROYAL FLUSH

Kini Telah hadir Jackpot 2000 (khusus table VIP keatas).

Ikutilah global jackpot yang tersedia di system kami, dengan system jackpot terbaru dan pertama di indonesia, anda dapat membeli jackpot dengan harga 100 rupiah saja dan menangkan hadiahnya hingga puluhan juta rupiah.

Jackpot bukanlah suatu keharusan untuk dibeli, namun kami memberikan suatu fitur tambahan untuk member tercinta dari www.damaiqq.net.

Terdapat tiga pilihan harga jackpot yang bisa anda beli yaitu :100,500,1000 dan 2000(khusus table VIP Keatas) rupiah.

Hadiah dari Multi jackpot system www.damaiqq.net

  1. full house x 10 harga jackpot yang anda beli.
      (contoh:anda membeli 1000 maka:1000 X10 = 10.000)
  2. four of kind x 250 harga jackpot yang anda beli
      (contoh:anda membeli 1000 maka:1000 X250 = 250.000)
  3. Straight flush x 1200
      (contoh:anda membeli 1000 maka:1000 X1200 = 1.200.000)
  4. Royal flush x 10000 harga jackpot yang anda beli
      (contoh:anda membeli 1000 maka:1000 X10000 = 10.000.000)
  5. SUPER ROYAL FLUSH x 30000 harga jackpot yang anda beli
      (contoh:anda membeli 1000 maka:1000 X30000 = 30.000.000)

Kondisi kartu

  1. full house adalah kondisi kartu dimana kartu anda dan kartu tengah dengan total 7 kartu bisa mendapatkan nilai 5 kartu dengan kombinasi 1 tris(three of kind) dan 1 pair, contoh 3 kartu 10 dan 2 kartu 5
  2. Four of kind adalah kondisi kartu dimana kartu anda dan kartu tengah dengan total 7 kartu bisa mendapatkan nilai 5 kartu dengan kombinasi 4 kartu yang sama jumlah dan 1 kartu apapun juga contoh anda mendapatkan 4 buah kartu angka 3 dan 1 kartu apapun.
  3. Staright flush adalah kondisi kartu dimana kartu anda dan kartu tengah dengan total 7 kartu bisa mendapatkan nilai 5 kartu dengan kombinasi seri / staright dengan kembang yang sama contoh : urutan kartu dari angka 5, 6, 7, 8 , 9 10 dengan kembang yg sama misalnya as hati
  4. Royal flush adalah kondisi kartu dimana kartu anda dan kartu tengah dengan total 7 kartu bisa mendapatkan nilai 5 kartu dengan kombinasi seri / staright dengan kembang yang sama tetapi kartu tersebut haruslah dimulai dari 10. contoh 10, Queen, Jack, King dan aces dengan kembang yang sama
  5. Super Royal flush adalah kondisi kartu dimana Kedua kartu anda digabung dengan 3 kartu pertama meja haruslah royal flush. contoh kartu anda 10,Queen kembang sama dan 3 kartu pertama meja adalah Jack, King dan aces dengan kembang yang sama

Demikian adalah penjelasan dari Multi Jackpot www.damaiqq.net terima kasih dan selamat bermain salam hoki dari kami

Texas Poker Jackpot Winner

TOP SUPER ROYAL FLUSH
No.TanggalNamaPriceWin
123/04 04:48GEHUCHENGSuper Royal flush15,000,000
223/04 00:42C76KO7XVWPSuper Royal flush6,000,000
322/04 23:08EB89FT040OSuper Royal flush15,000,000
422/04 16:18XDEJAVUXSuper Royal flush3,000,000
522/04 16:02VIOTASuper Royal flush15,000,000
TOP ROYAL FLUSH
No.TanggalNamaPriceWin
123/04 10:47KAKIKUKAKURoyal flush10,000,000
223/04 09:49ANDRIANA89Royal flush1,000,000
323/04 09:21RAFFI08Royal flush2,000,000
423/04 08:04C6088803Royal flush1,000,000
523/04 07:53ARMY_XXXRoyal flush5,000,000
TOP STRAIGHT FLUSH
No.TanggalNamaPriceWin
123/04 10:47GFI090ERStraight Flush240,000
223/04 10:47MATMITStraight Flush240,000
323/04 10:43ERICK1950Straight Flush600,000
423/04 10:36BON19DOLStraight Flush240,000
523/04 10:36STEMPY07Straight Flush240,000
LATEST JACKPOT
No.TanggalNamaPriceWin
123/04 10:50SUN1982Full House2,000
223/04 10:50BOBOTOH212Full House2,000
323/04 10:50KRISHNA7Full House1,000
423/04 10:50HERGATAFull House1,000
523/04 10:50BOYANDI212Full House10,000
623/04 10:50KERE81Full House5,000
723/04 10:50YOYOX84Full House20,000
823/04 10:50TIUH_TUHAFull House2,000
923/04 10:50DE795488Full House1,000
1023/04 10:50NIALESTARIFull House2,000
1123/04 10:50DPO90Full House2,000
1223/04 10:50JUTA999Full House2,000
1323/04 10:49UPRIY00Full House2,000
1423/04 10:49X1000QQFour Of A Kind250,000
1523/04 10:49FIFIAOKTAVFull House2,000
1623/04 10:49ANDEH12Full House5,000
1723/04 10:49PUTOKFull House5,000
1823/04 10:49WEDUS14Full House1,000
1923/04 10:49OEMIFull House2,000
2023/04 10:49TINUL28Four Of A Kind500,000
2123/04 10:49PANTEK2016Full House1,000
2223/04 10:49PELANDOK1Full House10,000
2323/04 10:49BAROQUE3Full House10,000
2423/04 10:49CHIPAGUFull House5,000
2523/04 10:49QUEEN1024Full House2,000
2623/04 10:49DILANKUINIFull House5,000
2723/04 10:49VUAXENG18Four Of A Kind250,000
2823/04 10:49OMSKI212Full House2,000
2923/04 10:49JACKKKYFull House2,000
3023/04 10:49DWTJULICANSERFull House5,000
3123/04 10:49HOTELXFour Of A Kind25,000
3223/04 10:49PUT125Full House2,000
3323/04 10:49BRAVO_1983Full House5,000
3423/04 10:49CASS_789Full House1,000
3523/04 10:49ARUMBARIAFour Of A Kind500,000
3623/04 10:49ASOKA1998Full House10,000
3723/04 10:49VHCFVNL8V7Full House10,000
3823/04 10:49CIREBON925Full House2,000
3923/04 10:49CUDAIIFour Of A Kind25,000
4023/04 10:49NAMNUNGCFull House2,000
4123/04 10:49ASAHAN44Full House1,000
4223/04 10:49MONEL321Full House2,000
4323/04 10:49HEICKER9Full House2,000
4423/04 10:48BREC14Full House1,000
4523/04 10:48BULAN128Full House2,000
4623/04 10:48LK4DTATTOO44Full House2,000
4723/04 10:48BAMAY0Full House2,000
4823/04 10:48IW4NK1N6Full House5,000
4923/04 10:48COAK88Four Of A Kind50,000
5023/04 10:48H7_TOLEFull House2,000

Domino Multi Jackpot System

Ikutilah global jackpot yang tersedia di system kami, dengan system jackpot terbaru dan pertama di indonesia, anda dapat membeli jackpot dengan harga 100 rupiah saja dan menangkan hadiahnya hingga puluhan juta rupiah.

Jackpot bukanlah suatu keharusan untuk dibeli, namun kami memberikan suatu fitur tambahan untuk member tercinta dari www.damaiqq.net.

Terdapat tiga pilihan harga jackpot yang bisa anda beli yaitu :100,500 dan 1000 rupiah.

Hadiah dari Multi jackpot system www.damaiqq.net

  1. Murni Kecil x 50 harga jackpot yang anda beli.
      (contoh:anda membeli 1000 maka:1000 X 50 = 50.000)
  2. Murni Besar x 50 harga jackpot yang anda beli
      (contoh:anda membeli 1000 maka:1000 X 50 = 50.000)
  3. BALAK x 100 harga jackpot yang anda beli
      (contoh:anda membeli 1000 maka:1000 X 100 = 100.000)
  4. ENAM DEWA x 6666 harga jackpot yang anda beli
      (contoh:anda membeli 1000 maka:1000 X 6666 = 6.666.000)

Demikian adalah penjelasan dari Multi Jackpot www.damaiqq.net terima kasih dan selamat bermain salam hoki dari kami

Domino Jackpot Winner

TOP ENAM DEWA
No.TanggalNamaPriceWin
123/04 08:58THEMITmurni enam6,666,000
223/04 05:45SJK09A1K1Kmurni enam666,600
323/04 03:30MITU23murni enam666,600
423/04 01:26ONK66murni enam3,333,000
522/04 22:42MUJIJYmurni enam6,666,000
TOP BALAK
No.TanggalNamaPriceWin
123/04 10:49T1LL33balak100,000
223/04 10:47NIE9MQ7ELCbalak100,000
323/04 10:46CMYDQM12R8balak10,000
423/04 10:40WENNYWOWbalak10,000
523/04 10:37C0NGNEK19balak50,000
LATEST JACKPOT
No.TanggalNamaPriceWin
123/04 10:49T1LL33balak100,000
223/04 10:47NIE9MQ7ELCbalak100,000
323/04 10:46CMYDQM12R8balak10,000
423/04 10:46ROBERTA79lucky9910,000
523/04 10:45ANZAFAmurni besar25,000
623/04 10:44GOGO05murni besar25,000
723/04 10:44SAMBALA13lucky9950,000
823/04 10:42BLOOOOOOOOmurni besar50,000
923/04 10:41BAKULTAHUmurni besar50,000
1023/04 10:40WENNYWOWbalak10,000
1123/04 10:40HO999murni besar50,000
1223/04 10:39RWR0NT3Kmurni kecil25,000
1323/04 10:39MURRY88murni kecil50,000
1423/04 10:37C0NGNEK19balak50,000
1523/04 10:37DEMPLON969balak100,000
1623/04 10:37G4G49QQmurni besar50,000
1723/04 10:36B3E8AA06murni kecil5,000
1823/04 10:35WUSWUS79murni besar50,000
1923/04 10:34KOINANO9balak100,000
2023/04 10:34NW2DAVUXHPmurni kecil50,000
2123/04 10:33FRANAJ3murni besar5,000
2223/04 10:32EXXX123murni kecil25,000
2323/04 10:31EMPAT66balak100,000
2423/04 10:30MS6F2PUGOPmurni besar25,000
2523/04 10:30HRPND601murni kecil50,000
2623/04 10:30ARIF8877lucky9925,000
2723/04 10:30IWANSURYAAbalak50,000
2823/04 10:30IBRO72balak100,000
2923/04 10:29BRONIZ15murni besar50,000
3023/04 10:27PLOSO69murni besar50,000
3123/04 10:26ARFAQILAmurni besar50,000
3223/04 10:25ORA999murni besar25,000
3323/04 10:24HEYGENGSlucky992,500
3423/04 10:23ISKNDRMZ_balak10,000
3523/04 10:23SYAH_222murni besar50,000
3623/04 10:23MORZEK33balak50,000
3723/04 10:22AKIDEDENbalak10,000
3823/04 10:21BOELANK757murni besar50,000
3923/04 10:20RASIQPACUmurni kecil5,000
4023/04 10:20CLBAGUSCPmurni kecil5,000
4123/04 10:19CARDO850murni besar25,000
4223/04 10:18SHA0202murni kecil25,000
4323/04 10:17MRGELOmurni kecil50,000
4423/04 10:17GOGO05murni kecil25,000
4523/04 10:17MANGKUPmurni besar5,000
4623/04 10:17SHA0202murni kecil25,000
4723/04 10:15AL_MUTbalak100,000
4823/04 10:15DAYUNG03murni kecil5,000
4923/04 10:14AHONG861balak10,000
5023/04 10:13DIKKUR5murni besar50,000

Ceme Multi Jackpot System

Jackpot dilihat dari gabungan kartu pemain dengan kartu bandar. Bandar harus membeli jackpot sebanyak jumlah player yang sedang duduk. Sebagai contoh bila terdapat 3 pemain duduk bermain, dan bandar memutuskan untuk membeli jackpot Rp 1.000, maka pada periode tersebut bandar akan membeli jackpot sebanyak 3xRp1.000 = Rp3.000.

Jackpot bukanlah suatu keharusan untuk dibeli, namun kami memberikan suatu fitur tambahan untuk member tercinta dari www.damaiqq.net.

Terdapat tiga pilihan harga jackpot yang bisa anda beli yaitu :100,500 dan 1000 rupiah.

Hadiah dari Multi jackpot system www.damaiqq.net

  1. Murni Kecil x 50 harga jackpot yang anda beli.
      (contoh:anda membeli 1000 maka:1000 X 50 = 50.000)
  2. Murni Besar x 50 harga jackpot yang anda beli
      (contoh:anda membeli 1000 maka:1000 X 50 = 50.000)
  3. BALAK x 200 harga jackpot yang anda beli
      (contoh:anda membeli 1000 maka:1000 X 200 = 200.000)
  4. ENAM DEWA x 6666 harga jackpot yang anda beli
      (contoh:anda membeli 1000 maka:1000 X 6666 = 6.666.000)

Demikian adalah penjelasan dari Multi Jackpot www.damaiqq.net terima kasih dan selamat bermain salam hoki dari kami

Ceme Jackpot Winner

TOP ENAM DEWA
No.TanggalNamaPriceWin
123/04 10:50ACHER90murni enam6,666,000
223/04 10:50SONSUG99murni enam6,666,000
323/04 10:25AREEYmurni enam666,600
423/04 10:23SMPPGRI1murni enam6,666,000
523/04 10:02ACH0NG3murni enam6,666,000
TOP BALAK
No.TanggalNamaPriceWin
123/04 10:50PARO2LAHbalak200,000
223/04 10:50CEMARA_123balak200,000
323/04 10:48KAIPA88balak200,000
423/04 10:48OMEGALULbalak20,000
523/04 10:47VNIZLFUIT5balak20,000
LATEST JACKPOT
No.TanggalNamaPriceWin
123/04 10:50COROG237murni besar50,000
223/04 10:50ST471murni besar25,000
323/04 10:50M7R3Bmurni kecil50,000
423/04 10:50ACHER90murni enam6,666,000
523/04 10:50SONSUG99murni enam6,666,000
623/04 10:50SALAKA100murni besar50,000
723/04 10:50DEMPLON15murni kecil50,000
823/04 10:50PARO2LAHbalak200,000
923/04 10:50CEMARA_123balak200,000
1023/04 10:49NAYA555murni besar50,000
1123/04 10:49HARSONO16murni besar50,000
1223/04 10:49ABOET123murni besar50,000
1323/04 10:49TOPKING199murni kecil50,000
1423/04 10:49JIPKImurni kecil5,000
1523/04 10:49MOLAU00murni kecil5,000
1623/04 10:48KATRO30murni kecil50,000
1723/04 10:48TROPHmurni kecil25,000
1823/04 10:48RICKYBOYZmurni kecil50,000
1923/04 10:48IPIN2018murni besar5,000
2023/04 10:48KAIPA88balak200,000
2123/04 10:48OMEGALULbalak20,000
2223/04 10:48HUSNI_25murni kecil50,000
2323/04 10:48QQTEROSS99murni besar50,000
2423/04 10:48ODANK270murni besar50,000
2523/04 10:47LAILI689murni kecil50,000
2623/04 10:47LAILI689murni kecil50,000
2723/04 10:47BHADRY_Nmurni kecil50,000
2823/04 10:47LAVERYQQ88murni kecil50,000
2923/04 10:47SYELVIA20murni kecil50,000
3023/04 10:47LAVERYQQ88murni kecil50,000
3123/04 10:47TUNUXmurni kecil25,000
3223/04 10:47COROG237murni kecil50,000
3323/04 10:47VNIZLFUIT5balak20,000
3423/04 10:47ASJAS62murni besar25,000
3523/04 10:47XIO_9murni besar50,000
3623/04 10:47LILAH899murni besar50,000
3723/04 10:47REZJOK88murni kecil25,000
3823/04 10:46ACHER90balak200,000
3923/04 10:46SAGALA13balak20,000
4023/04 10:46LANDJAVAbalak200,000
4123/04 10:46JAWA114balak200,000
4223/04 10:46DUDUK2122balak20,000
4323/04 10:46GSRUSDIANbalak200,000
4423/04 10:46KANAKANmurni kecil5,000
4523/04 10:46EFENDI1996murni kecil5,000
4623/04 10:46YUHUUUU06murni kecil50,000
4723/04 10:46BETOO69murni kecil25,000
4823/04 10:46BOSKCL82murni kecil5,000
4923/04 10:46QQTEROSS99murni kecil50,000
5023/04 10:46OMAY67murni kecil50,000